This demonstration page uses our WeatherBlox Daily Observations layout. Learn more.

Left ArrowRight Arrow

Hourly Observations for October 29, 2016

Temp ( °F °C ) Dew Point ( °F °C ) Humidity (%) Winds ( mph kmh ) Pressure ( in mb ) Visibility ( mi km ) Precip ( " mm )
12:53 am 00:53 Clear 66 18.9 53 11.7 63 63 SE 12 19 29.99 1016 10 16 0.00 0.00
1:53 am 01:53 Clear 64 17.8 53 11.7 68 68 SE 10 17 29.99 1016 10 16 0.00 0.00
2:53 am 02:53 Clear 63 17.2 52 11.1 68 68 SE 12 19 29.98 1015 10 16 0.00 0.00
3:53 am 03:53 Clear 61 16.1 51 10.6 70 70 SE 10 17 29.98 1015 10 16 0.00 0.00
4:53 am 04:53 Clear 60 15.6 51 10.6 72 72 SE 10 17 29.97 1015 10 16 0.00 0.00
5:53 am 05:53 Clear 59 15 50 10 72 72 ESE 9 15 29.98 1015 10 16 0.00 0.00
6:53 am 06:53 Clear 58 14.4 50 10 75 75 ESE 7 11 29.99 1016 10 16 0.00 0.00
7:53 am 07:53 Clear 59 15 50 10 72 72 ESE 8 13 30.00 1016 10 16 0.00 0.00
8:53 am 08:53 Sunny 60 15.6 51 10.6 72 72 SE 9 15 30.02 1017 10 16 0.00 0.00
9:53 am 09:53 Sunny 61 16.1 51 10.6 70 70 undefined N/A 30.05 1018 10 16 0.00 0.00
10:53 am 10:53 Sunny 67 19.4 51 10.6 57 57 SE 6 9 30.04 1017 10 16 0.00 0.00
11:53 am 11:53 Sunny 75 23.9 48 8.9 39 39 SW 5 7 30.03 1017 10 16 0.00 0.00
12:53 pm 12:53 Sunny 80 26.7 46 7.8 30 30 SW 8 13 30.00 1016 10 16 0.00 0.00
1:53 pm 13:53 Sunny 84 28.9 45 7.2 25 25 WSW 9 15 29.96 1015 10 16 0.00 0.00
2:53 pm 14:53 Sunny 85 29.4 44 6.7 24 24 undefined N/A 29.93 1014 10 16 0.00 0.00
3:53 pm 15:53 Sunny 87 30.6 43 6.1 21 21 S 9 15 29.91 1013 10 16 0.00 0.00
4:53 pm 16:53 Sunny 87 30.6 42 5.6 21 21 WSW 8 13 29.92 1013 10 16 0.00 0.00
5:53 pm 17:53 Sunny 86 30 42 5.6 21 21 SSW 5 7 29.93 1013 10 16 0.00 0.00
6:53 pm 18:53 Sunny 82 27.8 43 6.1 25 25 S 5 7 29.94 1014 10 16 0.00 0.00
7:53 pm 19:53 Clear 74 23.3 42 5.6 32 32 SSE 9 15 29.96 1014 10 16 0.00 0.00
8:53 pm 20:53 Clear 70 21.1 42 5.6 37 37 SSE 9 15 29.98 1015 10 16 0.00 0.00
9:53 pm 21:53 Clear 71 21.7 43 6.1 36 36 SE 12 19 29.99 1016 10 16 0.00 0.00
10:53 pm 22:53 Clear 67 19.4 46 7.8 47 47 SE 9 15 30.01 1016 10 16 0.00 0.00
11:53 pm 23:53 Clear 65 18.3 46 7.8 51 51 SE 10 17 30.00 1016 10 16 0.00 0.00

Powered by AerisWeather